When you browse on this site, cookies collect data to enhance your experience and personalize the content and advertising you see.
Visit our Privacy Policy to learn more. By continuing to use the site, you agree to this use of cookies and data.
EN

Hourly Weather Genuh

Today, 28 September, Monday

Time Temperature Precipitation Wind Pressure Humidity
00:00 +8°C° 0 mm 1 mps 594 mmHg 88%
01:00 +8°C° 0 mm 1 mps 594 mmHg 90%
02:00 +6°C° 0 mm 0 mps 594 mmHg 91%
03:00 +6°C° 0 mm 0 mps 593 mmHg 92%
04:00 +5°C° 0 mm 0 mps 593 mmHg 91%
05:00 +5°C° 0 mm 0 mps 593 mmHg 91%
06:00 +5°C° 0 mm 0 mps 594 mmHg 90%
07:00 +7°C° 0 mm 0 mps 594 mmHg 83%
08:00 +10°C° 0 mm 1 mps 595 mmHg 75%
09:00 +12°C° 0 mm 1 mps 596 mmHg 68%
10:00 +13°C° 0 mm 1 mps 597 mmHg 64%
11:00 +14°C° 0 mm 1 mps 597 mmHg 60%
12:00 +14°C° 0 mm 2 mps 598 mmHg 56%
13:00 +14°C° 0.1 mm 2 mps 597 mmHg 58%
14:00 +13°C° 0.1 mm 2 mps 597 mmHg 60%
15:00 +13°C° 0.1 mm 1 mps 597 mmHg 62%
16:00 +11°C° 0 mm 1 mps 596 mmHg 68%
17:00 +10°C° 0 mm 1 mps 595 mmHg 75%
18:00 +8°C° 0 mm 1 mps 594 mmHg 81%
19:00 +7°C° 0 mm 1 mps 594 mmHg 82%
20:00 +7°C° 0 mm 1 mps 594 mmHg 83%
21:00 +6°C° 0 mm 1 mps 594 mmHg 84%
22:00 +6°C° 0 mm 1 mps 594 mmHg 85%
23:00 +6°C° 0 mm 1 mps 594 mmHg 86%

Tomorrow, 29 September, Tuesday

Time Temperature Precipitation Wind Pressure Humidity
00:00 +5°C° 0 mm 1 mps 593 mmHg 86%
01:00 +5°C° 0 mm 1 mps 593 mmHg 87%
02:00 +4°C° 0 mm 1 mps 593 mmHg 87%
03:00 +3°C° 0 mm 0 mps 592 mmHg 88%
04:00 +3°C° 0 mm 0 mps 592 mmHg 87%
05:00 +3°C° 0 mm 0 mps 592 mmHg 87%
06:00 +3°C° 0 mm 0 mps 592 mmHg 87%
07:00 +6°C° 0 mm 1 mps 593 mmHg 80%
08:00 +8°C° 0 mm 1 mps 594 mmHg 73%
09:00 +11°C° 0 mm 1 mps 595 mmHg 66%
10:00 +12°C° 0 mm 2 mps 595 mmHg 63%
11:00 +13°C° 0 mm 2 mps 595 mmHg 60%
12:00 +13°C° 0 mm 2 mps 596 mmHg 57%
13:00 +13°C° 0.1 mm 2 mps 595 mmHg 58%
14:00 +13°C° 0.1 mm 2 mps 594 mmHg 60%
15:00 +12°C° 0.1 mm 2 mps 594 mmHg 62%
16:00 +10°C° 0 mm 2 mps 593 mmHg 69%
17:00 +9°C° 0 mm 1 mps 592 mmHg 76%
18:00 +7°C° 0 mm 1 mps 591 mmHg 83%
19:00 +6°C° 0 mm 1 mps 591 mmHg 84%
20:00 +6°C° 0 mm 1 mps 591 mmHg 85%
21:00 +5°C° 0 mm 1 mps 590 mmHg 86%
22:00 +5°C° 0 mm 1 mps 590 mmHg 86%
23:00 +4°C° 0 mm 1 mps 589 mmHg 87%

Day after tomorrow, 30 September, Wednesday

Time Temperature Precipitation Wind Pressure Humidity
00:00 +4°C° 0 mm 1 mps 589 mmHg 88%
01:00 +4°C° 0 mm 1 mps 588 mmHg 88%
02:00 +3°C° 0 mm 1 mps 588 mmHg 88%
03:00 +3°C° 0 mm 1 mps 588 mmHg 89%
04:00 +3°C° 0 mm 1 mps 587 mmHg 88%
05:00 +3°C° 0 mm 1 mps 587 mmHg 88%
06:00 +3°C° 0 mm 1 mps 587 mmHg 87%
07:00 +5°C° 0 mm 1 mps 588 mmHg 80%
08:00 +7°C° 0 mm 1 mps 589 mmHg 73%
09:00 +8°C° 0 mm 2 mps 590 mmHg 66%
10:00 +9°C° 0 mm 2 mps 590 mmHg 63%
11:00 +10°C° 0 mm 2 mps 590 mmHg 60%
12:00 +13°C° 0 mm 2 mps 591 mmHg 57%
13:00 +12°C° 0 mm 2 mps 590 mmHg 58%
14:00 +12°C° 0 mm 2 mps 590 mmHg 59%
15:00 +12°C° 0 mm 2 mps 590 mmHg 61%
16:00 +9°C° 0 mm 2 mps 589 mmHg 69%
17:00 +7°C° 0 mm 2 mps 588 mmHg 78%
18:00 +6°C° 0 mm 1 mps 587 mmHg 86%
19:00 +6°C° 0 mm 1 mps 587 mmHg 87%
20:00 +5°C° 0 mm 1 mps 587 mmHg 88%
21:00 +5°C° 0 mm 1 mps 587 mmHg 88%
22:00 +5°C° 0 mm 1 mps 588 mmHg 88%
23:00 +5°C° 0 mm 1 mps 588 mmHg 88%

1 October, Thursday

Time Temperature Precipitation Wind Pressure Humidity
00:00 +5°C° 0 mm 1 mps 588 mmHg 88%
01:00 +5°C° 0 mm 1 mps 588 mmHg 88%
02:00 +5°C° 0 mm 1 mps 588 mmHg 88%
03:00 +6°C° 0 mm 1 mps 588 mmHg 88%
04:00 +5°C° 0 mm 1 mps 587 mmHg 89%
05:00 +5°C° 0 mm 1 mps 587 mmHg 89%
06:00 +3°C° 0 mm 0 mps 587 mmHg 90%
07:00 +6°C° 0 mm 1 mps 588 mmHg 84%
08:00 +8°C° 0 mm 1 mps 589 mmHg 78%
09:00 +9°C° 0 mm 2 mps 590 mmHg 72%
10:00 +10°C° 0 mm 2 mps 590 mmHg 70%
11:00 +12°C° 0 mm 2 mps 590 mmHg 68%
12:00 +13°C° 0 mm 2 mps 591 mmHg 66%
13:00 +13°C° 0 mm 2 mps 591 mmHg 66%
14:00 +13°C° 0 mm 2 mps 590 mmHg 66%
15:00 +13°C° 0 mm 2 mps 590 mmHg 66%
16:00 +10°C° 0 mm 2 mps 589 mmHg 74%
17:00 +8°C° 0 mm 2 mps 589 mmHg 82%
18:00 +8°C° 0 mm 1 mps 588 mmHg 90%
19:00 +7°C° 0 mm 1 mps 588 mmHg 90%
20:00 +6°C° 0 mm 2 mps 588 mmHg 91%
21:00 +6°C° 0 mm 2 mps 588 mmHg 91%
22:00 +5°C° 0 mm 2 mps 588 mmHg 91%
23:00 +5°C° 0 mm 2 mps 588 mmHg 91%

2 October, Friday

Time Temperature Precipitation Wind Pressure Humidity
00:00 +5°C° 0 mm 2 mps 588 mmHg 91%
01:00 +6°C° 0 mm 1 mps 588 mmHg 90%
02:00 +6°C° 0 mm 1 mps 587 mmHg 89%
03:00 +6°C° 0 mm 1 mps 587 mmHg 88%
04:00 +6°C° 0 mm 1 mps 587 mmHg 86%
05:00 +6°C° 0 mm 1 mps 587 mmHg 84%
06:00 +6°C° 0 mm 1 mps 587 mmHg 82%
07:00 +8°C° 0 mm 1 mps 588 mmHg 75%
08:00 +10°C° 0 mm 2 mps 590 mmHg 69%
09:00 +13°C° 0 mm 2 mps 591 mmHg 62%
10:00 +14°C° 0 mm 2 mps 591 mmHg 59%
11:00 +15°C° 0 mm 2 mps 591 mmHg 56%
12:00 +16°C° 0 mm 3 mps 592 mmHg 52%
13:00 +16°C° 0 mm 2 mps 592 mmHg 52%
14:00 +16°C° 0 mm 2 mps 592 mmHg 51%
15:00 +16°C° 0 mm 2 mps 592 mmHg 51%
16:00 +14°C° 0 mm 1 mps 591 mmHg 59%
17:00 +12°C° 0 mm 1 mps 590 mmHg 67%
18:00 +9°C° 0 mm 0 mps 590 mmHg 75%
19:00 +10°C° 0 mm 1 mps 590 mmHg 78%
20:00 +9°C° 0 mm 1 mps 590 mmHg 81%
21:00 +9°C° 0 mm 1 mps 590 mmHg 84%
22:00 +8°C° 0.1 mm 1 mps 590 mmHg 86%
23:00 +8°C° 0.1 mm 1 mps 590 mmHg 88%

3 October, Saturday

Time Temperature Precipitation Wind Pressure Humidity
00:00 +8°C° 0.1 mm 1 mps 590 mmHg 90%
01:00 +8°C° 0.3 mm 1 mps 590 mmHg 90%
02:00 +8°C° 0.3 mm 1 mps 590 mmHg 91%
03:00 +8°C° 0.3 mm 1 mps 590 mmHg 92%
04:00 +8°C° 0.1 mm 1 mps 590 mmHg 91%
05:00 +7°C° 0.1 mm 1 mps 590 mmHg 90%
06:00 +7°C° 0.1 mm 1 mps 590 mmHg 89%
07:00 +9°C° 0.1 mm 1 mps 591 mmHg 82%
08:00 +11°C° 0.1 mm 1 mps 592 mmHg 74%
09:00 +13°C° 0.1 mm 1 mps 593 mmHg 66%
10:00 +14°C° 0.6 mm 1 mps 593 mmHg 65%
11:00 +14°C° 0.6 mm 1 mps 593 mmHg 63%
12:00 +15°C° 0.6 mm 2 mps 594 mmHg 61%
13:00 +15°C° 1.1 mm 1 mps 593 mmHg 63%
14:00 +14°C° 1.1 mm 1 mps 593 mmHg 65%
15:00 +14°C° 1.1 mm 1 mps 593 mmHg 67%
16:00 +13°C° 0.6 mm 1 mps 592 mmHg 72%
17:00 +11°C° 0.6 mm 1 mps 592 mmHg 77%
18:00 +10°C° 0.6 mm 1 mps 592 mmHg 82%
19:00 +9°C° 0.1 mm 1 mps 592 mmHg 84%
20:00 +8°C° 0.1 mm 1 mps 592 mmHg 85%
21:00 +8°C° 0.1 mm 1 mps 592 mmHg 87%
22:00 +8°C° 0.1 mm 1 mps 592 mmHg 90%
23:00 +8°C° 0.1 mm 1 mps 592 mmHg 92%
Show more